Overview Statistics Trail Chart Weather Telemetry Raw packets
 

This is the latest recevied weather packets stored in our database for station/object N0QV. If no packets are shown the sender has not sent any weather packets the latest 10 day(s).

<< 65 66 67 68 69 70 71 >>
Time Temp. Humidity Pressure Rain* Wind** Luminosity Snow
1788217074 30.56° C 52% 1012.6 hPa 0 mm - 52 W/m² -
1788216769 31.11° C 51% 1012.7 hPa 0 mm - 68 W/m² -
1788216464 31.11° C 51% 1012.5 hPa 0 mm - 62 W/m² -
1788216160 31.11° C 52% 1012.6 hPa 0 mm - 232 W/m² -
1788215854 31.11° C 51% 1012.5 hPa 0 mm - 258 W/m² -
1788215551 31.67° C 52% 1012.6 hPa 0 mm - 255 W/m² -
1788215247 31.67° C 51% 1012.4 hPa 0 mm - 266 W/m² -
1788214942 31.67° C 50% 1012.3 hPa 0 mm - 283 W/m² -
1788214638 31.67° C 49% 1012.4 hPa 0 mm - 237 W/m² -
1788214333 31.67° C 50% 1012.4 hPa 0 mm - 264 W/m² -
1788214028 31.11° C 54% 1012.4 hPa 0 mm - 330 W/m² -
1788213723 31.67° C 51% 1012.6 hPa 0 mm - 133 W/m² -
1788213418 31.67° C 49% 1012.4 hPa 0 mm - 197 W/m² -
1788213114 32.22° C 47% 1012.6 hPa 0 mm - 213 W/m² -
1788212811 32.22° C 49% 1012.4 hPa 0 mm - 326 W/m² -
1788212507 32.22° C 49% 1012.2 hPa 0 mm - 379 W/m² -
1788212203 32.22° C 49% 1012.6 hPa 0 mm - 329 W/m² -
1788211898 32.22° C 48% 1012.5 hPa 0 mm - 360 W/m² -
1788211594 32.22° C 49% 1012.3 hPa 0 mm - 403 W/m² -
1788211297 32.22° C 50% 1012.4 hPa 0 mm - 471 W/m² -
1788210990 32.22° C 51% 1012.3 hPa 0 mm - 507 W/m² -
1788210690 32.78° C 50% 1012.3 hPa 0 mm - 504 W/m² -
1788210387 32.22° C 51% 1012.2 hPa 0 mm - 494 W/m² -
1788210081 32.22° C 53% 1012 hPa 0 mm - 473 W/m² -
1788209780 31.67° C 52% 1012 hPa 0 mm - 484 W/m² -

* Rain latest hour (hover to see other rain measurements)
** Current wind speed in m/s (hover to see current wind gust speed)